Voltar ao catálogo

COSMOS 397 DEB

AtivoLEO
NORAD 5015·DEBRIS·🇷🇺 Russia

Lançado Feb 25, 1971 de Baikonur Cosmodrome

Loading…

Próximas Passagens (próximas 24 horas)

TLE

AtualizadoSource: Space-Track

Época: Sep 14, 2026, 14:19 UTC

1 05015U 71015J   26257.59683751  .00001648  00000-0  47525-3 0  9996
2 05015  65.7084   1.8463 0642361 283.9634  69.0833 13.67602549677015

Acompanhe COSMOS 397 DEB em tempo real com AllMySat

Download on the App Store